Howe Sound: Past 24 Hour Conditions

 

Howe Sound - Pam Rocks

04:00 AM PST 24 November 2014
This table is a summary of hourly weather conditions for the past 24 hours.
Date / Time
(PST)
Wind(knots) Conditions Visibility(km) Pressure(kPa) Air tempC) Relative humidity(%) Dew pointC)
24 November 2014
4:00 NE 4 N/A N/A 102.6 6 90 4
3:00 NNE 7 N/A N/A 102.7 5 91 4
2:00 NE 12 N/A N/A 102.7 5 91 4
1:00 N 8 N/A N/A 102.6 6 90 4
0:00 NE 12 N/A N/A 102.6 6 91 4
23 November 2014
23:00 NE 6 N/A N/A 102.5 6 89 5
22:00 N 3 N/A N/A 102.4 6 87 4
21:00 N 4 N/A N/A 102.3 7 86 4
20:00 NNW 4 N/A N/A 102.3 7 85 5
19:00 NNW 5 N/A N/A 102.2 7 87 5
18:00 WNW 2 N/A N/A 102.1 7 87 5
17:00 SSE 4 N/A N/A 102.0 9 75 5
16:00 S 6 N/A N/A 101.9 10 70 4
15:00 SSW 9 N/A N/A 101.9 10 70 5
14:00 SSW 11 N/A N/A 101.8 10 67 4
13:00 S 10 N/A N/A 101.7 10 71 5
12:00 S 10 N/A N/A 101.6 9 75 5
11:00 SSE 12 N/A N/A 101.6 9 78 5
10:00 SSE 10 N/A N/A 101.5 8 90 7
9:00 calm N/A N/A 101.4 7 90 6
8:00 SE 2 N/A N/A 101.3 8 90 6
7:00 WSW 11 N/A N/A 101.3 8 85 6
6:00 SSW 22 N/A N/A 101.2 9 80 5
5:00 SSW 19 gust 26 N/A N/A 101.3 8 82 5
4:00 S 24 N/A N/A 101.3 9 81 6
 
Map of Pacific - Georgia Basin marine weather areas Tsawwassen Ferry Terminal Sentry Shoal - 46131 Halibut Bank - 46146 La Perouse Bank - 46206 Discovery Island Esquimalt Harbour Kelp Reefs Malahat Race Rocks Lightstation Saturna Island Sheringham Point University of Victoria Victoria Gonzales Victoria Int'l Airport Ballenas Islands Campbell River Airport Comox Airport Entrance Island Fanny Island Nanaimo Airport Sisters Islets Estevan Point Tofino Airport Grief Point Powell River Airport Sechelt Point Atkinson Sand Heads Lightstation Vancouver Harbour Vancouver Int'l Airport West Vancouver Port Alberni Howe Sound - Pam Rocks Squamish Airport